Overview Statistics Trail Chart Weather Telemetry Raw packets
 

This is the latest recevied weather packets stored in our database for station/object NR6G-5. If no packets are shown the sender has not sent any weather packets the latest 10 day(s).

<< 11 12 13 14 15 16 17 >>
Time Temp. Humidity Pressure Rain* Wind** Luminosity Snow
1777713288 18.33° C 58% 1010.2 hPa 0 mm - - -
1777712987 18.33° C 59% 1010.2 hPa 0 mm - - -
1777712685 18.33° C 58% 1010.2 hPa 0 mm - - -
1777712385 18.89° C 57% 1010.3 hPa 0 mm - - -
1777712086 19.44° C 56% 1010.3 hPa 0 mm - - -
1777711785 20° C 55% 1010.3 hPa 0 mm - - -
1777711489 20° C 55% 1010.4 hPa 0 mm - - -
1777711186 19.44° C 57% 1010.4 hPa 0 mm - - -
1777710589 18.89° C 58% 1010.6 hPa 0 mm - - -
1777709990 18.89° C 61% 1010.7 hPa 0 mm - - -
1777709386 18.89° C 61% 1010.7 hPa 0 mm - - -
1777708786 18.89° C 61% 1010.6 hPa 0 mm - - -
1777708489 18.89° C 60% 1010.6 hPa 0 mm - - -
1777708190 18.33° C 63% 1010.6 hPa 0 mm - - -
1777707890 18.33° C 63% 1010.7 hPa 0 mm - - -
1777707589 18.33° C 63% 1010.7 hPa 0 mm - - -
1777707288 18.33° C 63% 1010.6 hPa 0 mm - - -
1777706989 18.33° C 64% 1010.6 hPa 0 mm - - -
1777706690 18.33° C 64% 1010.6 hPa 0 mm - - -
1777706387 18.89° C 63% 1010.7 hPa 0 mm - - -
1777706088 18.89° C 63% 1010.7 hPa 0 mm - - -
1777705790 18.89° C 62% 1010.7 hPa 0 mm - - -
1777705489 19.44° C 60% 1010.6 hPa 0 mm - - -
1777704889 20.56° C 55% 1010.5 hPa 0 mm - - -
1777704292 21.11° C 51% 1010.3 hPa 0 mm - - -

* Rain latest hour (hover to see other rain measurements)
** Current wind speed in m/s (hover to see current wind gust speed)